User: anonymous   Login
Location: Eschertshofen
(49.3064°N, 11.5756°E)
Time: 05:38:24
(UTC+00:00)
Language:

Cosmos 1634 Rocket - Orbit

View from above orbital plane
View from above orbital plane
View from above satellite
View from above satellite

Ground track
Ground track

The orbit data is extracted from the following two-line orbital elements,

1 15598U 85022B   20333.56460076 +.00000016 +00000-0 +10862-5 0  9999
2 15598 082.9386 250.2376 0021838 180.7982 352.3538 13.76577250793627
Epoch (UTC): 28 November 2020 13:33:01
Eccentricity: 0.0021838
inclination: 82.9386°
perigee height: 960 km
apogee height: 992 km
right ascension of ascending node: 250.2376°
argument of perigee: 180.7982°
revolutions per day: 13.76577250
mean anomaly at epoch: 352.3538°
orbit number at epoch: 79362

The dashed part of the orbit path shows where the satellite is in the earth's shadow,  

DLR